www.pogodaiklimat.ru

Погода и климат >> Архив погоды >> Мадагаскар >> Fascene


ПОГОДА в Fascene

  • Прогноз погоды в Fascene
  • Монитор погоды в Fascene
  • Климат города

АРХИВ ПОГОДЫ в Fascene

Время (UTC), дата Ветер
(напр.,м/с)
 
Видим.   Явления Облачность Т
(С)
Тd
(С)
f
(%)
Тe
(С)
Тes
(С)
Комфортность P
(гПа)
Po
(гПа)
Тmin
(С)
Tmax
(С)
R
(мм)
R24
(мм)
S
(см)
09 4.12 СВ 3 40 км 8/8 600 м
[Cu med, cong]
+31.0 +25.1 71 +45 +48 опасность
перегрева
1011.5 1010.4
12 4.12 СЗ 2 40 км 3/3 600 м
[Cu med, cong]
+32.5 +24.8 64 +46 +53 опасность
перегрева
1009.1 1008.0
15 4.12 ЮЗ 2 40 км 4/4 600 м
[Cu med, cong]
+28.2 +24.8 82 +40 +40 очень
душно
1010.9 1009.8 +32.5
18 4.12 ЮЗ 1 н/о н/о +26.3 +25.8 97 +39 +39 очень
душно
1011.4 +32.5
21 4.12 ЮЗ 1 н/о н/о +26.2 +26.2 100 +39 +39 очень
душно
1011.0
00 5.12 Ю 1 н/о н/о +24.9 +24.9 100 +35 +35 очень
душно
1010.1
03 5.12 штиль 0 н/о н/о +24.9 +24.9 100 +35 +35 очень
душно
1011.7
06 5.12 ЮЗ 1 н/о н/о +30.2 +25.5 76 +44 +44 опасность
перегрева
1012.5 +24.7
09 5.12 СВ 3 40 км 9/9 600 м
[Cu med, cong]
+31.0 +26.3 76 +47 +49 опасность
перегрева
1012.4 1011.3
12 5.12 З 2 н/о н/о +32.5 +24.3 62 +45 +45 опасность
перегрева
1008.6
15 5.12 ЮЗ 1 40 км 8/8 600 м
[Cb cap]
+29.4 +24.8 76 +42 +42 опасность
перегрева
1012.1 1011.0 +33.4
18 5.12 штиль 0 н/о н/о +25.9 +24.3 91 +36 +36 очень
душно
1011.5 +34.1
21 5.12 Ю 1 н/о н/о +24.2 +24.2 100 +33 +33 очень
душно
1009.9
00 6.12 Ю 1 н/о н/о +24.0 +24.0 100 +33 +33 очень
душно
1009.2
03 6.12 Ю 1 н/о н/о +24.2 +24.2 100 +33 +33 очень
душно
1011.0
06 6.12 СВ 1 н/о н/о +31.3 +24.7 68 +44 +44 опасность
перегрева
1011.9 +23.8
09 6.12 СВ 3 40 км 8/5 600 м
[Cu med, cong Ac trans Ci sp]
+30.8 +24.9 71 +44 +50 опасность
перегрева
1011.8 1010.7
12 6.12 СЗ 2 н/о н/о +32.2 +23.7 61 +44 +44 опасность
перегрева
1008.4
15 6.12 ЮЗ 1 40 км 8/8 600 м
[Cb cap]
+30.0 +23.4 68 +41 +41 опасность
перегрева
1010.4 1009.3 +32.8
18 6.12 ЮЗ 1 н/о н/о +23.0 +23.0 100 +32 +32 очень
душно
1012.4 +33.5 22
21 6.12 Ю 1 н/о н/о +23.9 +23.9 100 +33 +33 очень
душно
1011.0
00 7.12 В 1 н/о н/о +24.6 +24.6 100 +34 +34 очень
душно
1009.3
03 7.12 Ю 1 40 км 5/3 600 м
[Cu med, cong Ac trans Ci sp]
+24.4 +24.4 100 +34 +34 очень
душно
1011.8 1010.7 23
06 7.12 СВ 1 н/о н/о +29.9 +22.9 66 +40 +40 очень
душно
1011.6 +23.1
09 7.12 СВ 2 40 км 4/3 600 м
[Cu med, cong Ci sp]
+31.6 +23.7 63 +43 +57 опасность
перегрева
1011.4 1010.3
12 7.12 ЮЗ 3 40 км 5/3 600 м
[Cb cap Ci sp]
+32.0 +24.3 64 +44 +50 опасность
перегрева
1009.3 1008.2
15 7.12 Ю 1 н/о н/о +29.1 +24.7 77 +41 +41 опасность
перегрева
1008.7
18 7.12 ЮЗ 1 н/о н/о +24.3 +24.3 100 +34 +34 очень
душно
1011.3 +33.5
21 7.12 штиль 0 н/о н/о +25.4 +25.4 100 +37 +37 очень
душно
1010.8
00 8.12 штиль 0 н/о н/о +25.1 +25.1 100 +36 +36 очень
душно
1009.3
03 8.12 штиль 0 40 км 4/4 600 м
[Cu Sc]
+24.2 +24.2 100 +33 +34 очень
душно
1011.7 1010.6 2
06 8.12 СВ 2 н/о н/о +30.5 +24.6 71 +43 +43 опасность
перегрева
1011.7 +23.8
09 8.12 СВ 3 40 км 5/5 600 м
[Cu med, cong]
+32.2 +23.0 58 +42 +51 опасность
перегрева
1011.6 1010.5
12 8.12 ЮЗ 3 40 км 4/4 600 м
[Cu med, cong]
+32.4 +24.7 64 +45 +51 опасность
перегрева
1009.4 1008.3
15 8.12 ЮЗ 2 40 км 6/6 600 м
[Cu med, cong]
+29.2 +25.2 79 +42 +42 опасность
перегрева
1010.6 1009.5 +34.5
18 8.12 СВ 1 н/о н/о +26.9 +24.6 87 +38 +38 очень
душно
1012.1 +34.6
21 8.12 ЮЗ 1 н/о н/о +24.5 +23.6 95 +33 +33 очень
душно
1010.5
00 9.12 ЮЗ 1 н/о н/о +23.3 +23.3 100 +33 +33 очень
душно
1009.9
03 9.12 ЮЗ 1 40 км 4/4 600 м
[Cu med, cong]
+23.0 +23.0 100 +32 +32 очень
душно
1013.0 1011.8
06 9.12 СВ 1 н/о н/о +30.7 +22.8 63 +41 +41 опасность
перегрева
1012.6 +22.6
09 9.12 СВ 3 40 км 6/6 600 м
[Cu med, cong]
+32.3 +24.4 63 +45 +52 опасность
перегрева
1012.5 1011.4
12 9.12 З 3 40 км 4/4 600 м
[Cb cap]
+32.9 +24.4 61 +45 +50 опасность
перегрева
1010.2 1009.1
15 9.12 З 2 40 км 4/4 600 м
[Cb cap]
+29.4 +25.3 79 +43 +43 опасность
перегрева
1011.1 1010.0 +32.9
18 9.12 Ю 1 н/о н/о +26.1 +26.1 100 +39 +39 очень
душно
1012.7 +33.1
21 9.12 ЮЗ 1 н/о н/о +25.4 +25.4 100 +37 +37 очень
душно
1012.0
00 10.12 штиль 0 н/о н/о +25.3 +25.3 100 +36 +36 очень
душно
1011.2
03 10.12 штиль 0 н/о н/о +25.4 +24.9 97 +36 +36 очень
душно
1012.7
06 10.12 СВ 1 н/о н/о +28.9 +25.1 80 +42 +42 опасность
перегрева
1013.4 +25.2
09 10.12 СВ 3 40 км 8/6 600 м
[Cu med, cong Ac trans]
+31.8 +25.3 69 +46 +51 опасность
перегрева
1013.0 1011.9
12 10.12 ЮЗ 2 40 км 6/4 600 м
[Cb cap Ac trans]
+31.8 +24.5 65 +44 +49 опасность
перегрева
1010.6 1009.5
15 10.12 З 1 40 км 5/4 600 м
[Cb cap Ac trans Ci sp]
+28.8 +24.4 77 +40 +40 очень
душно
1011.5 1010.4 +31.8
18 10.12 Ю 1 н/о н/о +25.6 +25.6 100 +37 +37 очень
душно
1012.4 +32.3
21 10.12 Ю 1 н/о н/о +24.8 +24.8 100 +35 +35 очень
душно
1012.1
00 11.12 Ю 1 н/о н/о +24.6 +24.6 100 +34 +34 очень
душно
1011.1
03 11.12 Ю 1 40 км 3/3 600 м
[Cu med, cong Ci sp]
+24.5 +24.5 100 +34 +35 очень
душно
1013.2 1012.1
06 11.12 Ю 1 н/о н/о +31.1 +24.7 69 +44 +44 опасность
перегрева
1013.1 +24.3

 

Местоположение метеостанции Fascene (Мадагаскар): широта -13.31 долгота 48.32 высота над уровнем моря 9 м.

В архиве по умолчанию представлена погода в Fascene за последнюю неделю. Архивные данные за месяц целиком и за предыдущие месяцы, начиная с января 2011 года, Вы можете получить, выбрав интересующий диапазон дат из раскрывающегося списка и нажав кнопку "Ввод!".


*Определитесь, кто Вы:
робот инопланетянин человек

Внимание! Время в таблицах - всемирное. Для получения местного времени необходимо прибавить поправку, которая в Fascene равна 3 ч.

Смотрите также архив погоды в соседних городах и на ближайших метеорологических станциях:

Погода в Antsiranana (Мадагаскар) (151 км)
Погода в Antsohihy (Мадагаскар) (178 км)
Погода в Sambava (Мадагаскар) (227 км)
Погода в Glorieuses Island (Реюньон) (235 км)
Погода в Antalaha (Мадагаскар) (272 км)
Погода в Dzaoudzi (Коморские Острова) (334 км)
Погода в Mahajanga (Мадагаскар) (337 км)
Погода в Nosy Boraha (Мадагаскар) (449 км)
Погода в Ambohitsilaozana (Мадагаскар) (481 км)
Погода в Toamasina (Мадагаскар) (546 км)

Пояснения к столбцам:

Ветер - указаны скорость ветра в м/с - средняя за 10 мин, порывы в срок и между сроками (в фигурных скобках) и направление, откуда дует ветер: С - северный, СВ - северо-восточный, В - восточный, ЮВ - юго-восточный, Ю - южный, ЮЗ - юго-западный, З - западный, СЗ - северо-западный.
Видимость - горизонтальная дальность видимости в метрах или километрах. При видимости от 1 до 10 км при отсутствии осадков обычно наблюдается дымка, при ухудшении видимости до 1 км и менее - туман. В сухую погоду видимость может ухудшаться дымом, пылью или мглою.
Явления - указаны атмосферные явления, наблюдавшиеся в срок или в последний час перед сроком; фигурными скобками обозначены явления, наблюдавшиеся между сроками (за 1-3 часа до срока); квадратными скобками обозначены град или гололедные отложения с указанием их диаметра в мм.
Облачность - указаны через наклонную черту общая и нижняя облачность в баллах и высота нижней границы облаков в метрах; квадратными скобками обозначены формы облаков: Ci - перистые, Cs - перисто-слоистые, Cc - перисто-кучевые, Ac - высококучевые, As - высокослоистые, Sc - слоисто-кучевые, Ns - слоисто-дождевые, Cu - кучевые, Cb - кучево-дождевые. Подробнее классификацию облаков см. в Атласе облаков (PDF).
T - Температура воздуха - температура, измеренная на высоте 2 м над землей.
Td - Температура точки росы - температура, при понижении до которой содержащийся в воздухе водяной пар достигнет насыщения.
f - Относительная влажность воздуха - влажноcть воздуха, измеренная на высоте 2 м над землей.
Te - Эффективная температура - температура, которую ощущает одетый по сезону человек в тени. Характеристика душности погоды. При расчете учитывается влияние влажности воздуха и скорости ветра на теплоощущения человека.
Tes - Эффективная температура на солнце - температура, которую ощущает человек, с поправкой на солнечный нагрев. Характеристика знойности погоды. Зависит от высоты солнца над горизонтом, облачности и скорости ветра. Ночью, в пасмурную погоду, а также при ветре 12 м/с и более поправка равна нулю.
P - Атмосферное давление - приведенное к уровню моря атмосферное давление.
Po - Атмосферное давление - измеренное на уровне метеостанции атмосферное давление.
Tmin - Минимальная температура - минимум температуры воздуха на высоте 2 м над землей.
Tmax - Максимальная температура - максимум температуры воздуха на высоте 2 м над землей.
R - Количество осадков - Количество выпавших осадков за период времени, мм. При наведении курсора мыши на число - период времени, за который выпало указанное количество осадков.
R24 - Количество осадков - Количество выпавших осадков за 24 часа, мм.
S - Снежный покров - Высота снежного покрова, см. При наведении курсора мыши на число - состояние снежного покрова и степень покрытия местности в баллах.